Weather in Il'pyrskoye

Russia / Kamchatka Krai     59°57′42″N   164°11′04″E
temp.,
°C
wind,
m/s
gust,
m/s
humid.,
%
clouds,
%
prec.,
mm/h
press.,
hPa
HPBL,
m
28 february, sun
sun2800:00−27n34895 0.0 102435
03:00−27n238918 0.0 102427
06:00−25n229446 0.0 102330
09:00−22nne3398100 0.1 1023112
12:00−18nne2492100 0.3 1021175
15:00−15ne4988100 0.0 1018378
18:00−18n4490100 0.0 101656
21:00−20n5691100 0.0 101486
1 march, mon
mon100:00−22n81191100 0.0 1009158
03:00−23nnw91292100 0.1 1004193
06:00−24nnw111496100 0.7 1001208
09:00−25nnw121696100 1.6 999257
12:00−25nnw121894100 3.1 998324
15:00−23nnw101694100 1.2 997374
18:00−23nnw101693100 1.9 997383
21:00−24nnw7138899 0.1 999365
2 march, tue
tue200:00−24nw6108899 0.1 1000293
03:00−24nw51088100 0.0 1003309
06:00−25nnw3490100 0.0 100571
09:00−24nw4591100 0.0 100989
12:00−21nnw5784100 0.0 1011312
15:00−19nnw6883100 0.0 1014364
18:00−20nnw4785100 0.0 1017167
21:00−19nnw4788100 0.0 1020138
3 march, wed
wed300:00−18nnw4690100 0.0 1023172
03:00−19nw3393100 0.0 102562
06:00−20nnw1292100 0.0 102629
09:00−22n119522 0.0 102824
12:00−18ene229061 0.0 1027100
15:00−17e5791100 0.0 1023380
18:00−17e101792100 0.1 1017485
21:00−8ese152294100 1.6 10091026
4 march, thu
thu400:00−3ese212994100 5.3 9971077
03:00+1se202997100 7.4 9851035
06:00+1se182797100 14.7 9761048
09:00+1sse162498100 5.8 9711047
12:00−2sse598483 6.4 973567
15:00−12wnw14227089 1.7 9781006
18:00−14wsw6167294 1.9 9841184
21:00−15sw71769100 0.0 9881205